Location: Newark
(43.0000°N, 1.6781°W)
Time: 00:05:29
(UTC+00:00)

Vanguard 1 Rocket - Pass Details

Date: 21 April 2021
Orbit: 652 x 4224 km, 34.3° (Epoch: 06 May)

Event Time Altitude Azimuth Distance (km) Brightness Sun altitude
Rises 18:38:35 0° 254° (WSW) 3,029 11.3 2.3°
Reaches altitude 10° 18:42:40 10° 216° (SW) 2,368 9.9 1.6°
Maximum altitude 18:44:08 11° 200° (SSW) 2,422 9.7 1.3°
Drops below altitude 10° 18:45:45 10° 184° (S) 2,659 9.7 1.0°
Sets 18:51:34 0° 152° (SSE) 4,313 10.4 0.0°
